Weather History for Belen, NM

Change the Weather History Date:

Thursday, February 14, 2013

  Actual Average (KABQ) Record (KABQ)
Temperature  
Mean Temperature 36 °F 41 °F  
Max Temperature 55 °F 52 °F 73 °F (1979)
Min Temperature 17 °F 30 °F 6 °F (1895)
Degree Days  
Heating Degree Days 29 24  
Month to date heating degree days 353  
Since 1 July heating degree days 2995  
Cooling Degree Days 0 0  
Month to date cooling degree days 0  
Year to date cooling degree days 0  
Moisture  
Dew Point 14 °F    
Average Humidity 42    
Maximum Humidity 72    
Minimum Humidity 20    
Precipitation  
Precipitation 0.00 in 0.02 in 0.51 in (1993)
Month to date precipitation 0.23  
Year to date precipitation 0.61  
Snow  
Snow 0.00 in - - ()
Month to date snowfall  
Since 1 July snowfall  
Snow Depth -    
Sea Level Pressure  
Sea Level Pressure 30.13 in    
Wind  
Wind Speed 7 mph (NNW)    
Max Wind Speed 22 mph    
Max Gust Speed 28 mph    
Visibility 10 miles    
Events      
T = Trace of Precipitation, MM = Missing Value Source: NWS Daily Summary

Daily Weather History Graph

Daily Weather History Graph

Search for Another Location

Airport:

Trip Planner

Search our weather history database for the weather conditions in past years. The results will help you decide how hot, cold, wet, or windy it might be!

Date:

Astronomy

Feb. 14, 2013 Rise Set
Actual Time 6:53 AM MST 5:49 PM MST
Civil Twilight 6:27 AM MST 6:15 PM MST
Nautical Twilight 5:58 AM MST 6:45 PM MST
Astronomical Twilight 5:28 AM MST 7:14 PM MST
Moon 9:11 AM MST 10:40 PM MST
Length of Visible Light 11h 47m
Length of Day
10h 56m
Waxing Crescent, 22% of the Moon is Illuminated
Feb 14
Waxing Crescent
Feb 17
First Quarter
Feb 25
Full
Mar 4
Last Quarter
Mar 11
New

Hourly Weather History & Observations

Time (MST) Temp. Windchill Dew Point Humidity Pressure Visibility Wind Dir Wind Speed Gust Speed Precip Events Conditions
12:15 AM 27.5 °F 20.2 °F 12.4 °F 53% 30.13 in 10.0 mi North 6.9 mph - N/A   Clear
12:35 AM 25.9 °F 17.4 °F 11.3 °F 54% 30.13 in 10.0 mi North 8.1 mph - N/A   Clear
12:55 AM 26.6 °F 21.2 °F 11.7 °F 53% 30.13 in 10.0 mi North 4.6 mph - N/A   Clear
1:15 AM 24.1 °F - 10.4 °F 56% 30.13 in 10.0 mi Calm Calm - N/A   Clear
1:35 AM 28.2 °F 22.0 °F 12.6 °F 52% 30.12 in 10.0 mi NE 5.8 mph - N/A   Clear
2:15 AM 25.9 °F - 11.1 °F 54% 30.12 in 10.0 mi Calm Calm - N/A   Clear
2:35 AM 26.6 °F 20.0 °F 12.6 °F 55% 30.12 in 10.0 mi WNW 5.8 mph - N/A   Clear
2:55 AM 24.3 °F 17.3 °F 11.8 °F 59% 30.11 in 10.0 mi NNW 5.8 mph - N/A   Clear
3:15 AM 22.8 °F - 9.7 °F 57% 30.12 in 10.0 mi Calm Calm - N/A   Clear
4:15 AM 19.4 °F 14.3 °F 9.0 °F 64% 30.12 in 10.0 mi WNW 3.5 mph - N/A   Clear
4:35 AM 21.9 °F 12.5 °F 10.9 °F 63% 30.12 in 10.0 mi NW 8.1 mph - N/A   Clear
5:15 AM 22.8 °F 18.2 °F 11.8 °F 63% 30.12 in 10.0 mi NW 3.5 mph - N/A   Clear
5:35 AM 21.2 °F 14.9 °F 11.7 °F 67% 30.12 in 10.0 mi NW 4.6 mph - N/A   Clear
5:55 AM 19.9 °F - 10.8 °F 68% 30.13 in 10.0 mi Calm Calm - N/A   Clear
6:15 AM 20.5 °F - 11.3 °F 68% 30.13 in 10.0 mi Calm Calm - N/A   Clear
6:35 AM 18.3 °F 11.5 °F 9.7 °F 69% 30.14 in 10.0 mi NNW 4.6 mph - N/A   Clear
6:55 AM 17.1 °F 7.6 °F 9.5 °F 72% 30.14 in 10.0 mi North 6.9 mph - N/A   Clear
7:15 AM 19.9 °F 11.1 °F 11.3 °F 69% 30.14 in 10.0 mi North 6.9 mph - N/A   Clear
7:35 AM 23.0 °F 17.0 °F 13.1 °F 66% 30.15 in 10.0 mi North 4.6 mph - N/A   Clear
7:55 AM 27.5 °F 22.2 °F 15.1 °F 60% 30.16 in 10.0 mi NW 4.6 mph - N/A   Clear
8:15 AM 30.7 °F - 16.7 °F 56% 30.16 in 10.0 mi Calm Calm - N/A   Clear
8:35 AM 34.2 °F 30.0 °F 18.0 °F 52% 30.16 in 10.0 mi NNE 4.6 mph - N/A   Clear
8:55 AM 36.3 °F 33.7 °F 18.1 °F 48% 30.16 in 10.0 mi NNE 3.5 mph - N/A   Clear
9:15 AM 36.9 °F 34.3 °F 18.1 °F 47% 30.16 in 10.0 mi NNE 3.5 mph - N/A   Clear
9:35 AM 38.3 °F 34.8 °F 18.1 °F 44% 30.17 in 10.0 mi NE 4.6 mph - N/A   Clear
9:55 AM 38.3 °F 35.9 °F 18.0 °F 44% 30.16 in 10.0 mi NNE 3.5 mph - N/A   Clear
10:15 AM 39.7 °F 36.5 °F 18.1 °F 42% 30.16 in 10.0 mi NNE 4.6 mph - N/A   Clear
10:35 AM 40.3 °F 38.2 °F 17.6 °F 40% 30.16 in 10.0 mi NNW 3.5 mph - N/A   Clear
10:55 AM 42.6 °F 39.9 °F 17.2 °F 36% 30.16 in 10.0 mi NNW 4.6 mph - N/A   Clear
11:15 AM 43.2 °F 41.5 °F 17.2 °F 35% 30.15 in 10.0 mi North 3.5 mph - N/A   Clear
11:35 AM 44.4 °F 42.9 °F 17.4 °F 34% 30.14 in 10.0 mi WNW 3.5 mph - N/A   Clear
11:55 AM 45.0 °F 43.5 °F 17.4 °F 33% 30.14 in 10.0 mi NNE 3.5 mph - N/A   Clear
12:15 PM 46.2 °F 41.7 °F 17.8 °F 32% 30.12 in 10.0 mi NW 9.2 mph - N/A   Clear
12:35 PM 48.2 °F - 17.8 °F 30% 30.11 in 10.0 mi WNW 8.1 mph - N/A   Clear
12:55 PM 48.9 °F - 17.6 °F 29% 30.10 in 10.0 mi WNW 9.2 mph - N/A   Clear
1:15 PM 49.5 °F - 17.4 °F 28% 30.09 in 10.0 mi WNW 10.4 mph - N/A   Clear
1:35 PM 50.5 °F - 15.8 °F 25% 30.08 in 10.0 mi NNW 6.9 mph 16.1 mph N/A   Clear
1:55 PM 51.4 °F - 14.9 °F 23% 30.08 in 10.0 mi NW 10.4 mph 16.1 mph N/A   Clear
2:15 PM 53.1 °F - 14.5 °F 22% 30.07 in 10.0 mi NW 6.9 mph 17.3 mph N/A   Clear
2:35 PM 54.5 °F - 14.0 °F 20% 30.07 in 10.0 mi WNW 13.8 mph - N/A   Clear
2:55 PM 53.8 °F - 14.5 °F 21% 30.07 in 10.0 mi WNW 11.5 mph 18.4 mph N/A   Clear
3:15 PM 54.9 °F - 14.7 °F 21% 30.07 in 10.0 mi NNW 15.0 mph 19.6 mph N/A   Clear
3:35 PM 55.8 °F - 15.3 °F 20% 30.07 in 10.0 mi North 13.8 mph 20.7 mph N/A   Clear
3:55 PM 55.4 °F - 15.3 °F 21% 30.07 in 10.0 mi North 15.0 mph - N/A   Clear
4:15 PM 54.1 °F - 14.9 °F 21% 30.08 in 10.0 mi NNW 21.9 mph 27.6 mph N/A   Clear
4:35 PM 53.2 °F - 14.7 °F 22% 30.07 in 10.0 mi North 18.4 mph 24.2 mph N/A   Clear
4:55 PM 52.7 °F - 14.9 °F 22% 30.07 in 10.0 mi North 18.4 mph 25.3 mph N/A   Clear
5:15 PM 51.4 °F - 14.7 °F 23% 30.08 in 10.0 mi NNW 20.7 mph 26.5 mph N/A   Clear
5:35 PM 49.8 °F - 15.3 °F 25% 30.08 in 10.0 mi NNW 20.7 mph 25.3 mph N/A   Clear
5:55 PM 48.2 °F - 14.5 °F 26% 30.09 in 10.0 mi NNW 15.0 mph 20.7 mph N/A   Clear
6:15 PM 46.6 °F - 14.2 °F 27% 30.10 in 10.0 mi North 15.0 mph - N/A   Clear
6:35 PM 45.5 °F 38.6 °F 14.0 °F 28% 30.10 in 10.0 mi NNW 16.1 mph - N/A   Clear
6:55 PM 43.9 °F 37.5 °F 14.4 °F 30% 30.11 in 10.0 mi NNW 12.7 mph - N/A   Clear
7:15 PM 42.3 °F 35.9 °F 14.2 °F 32% 30.12 in 10.0 mi NNW 11.5 mph - N/A   Clear
7:35 PM 41.7 °F 35.2 °F 14.5 °F 33% 30.13 in 10.0 mi NW 11.5 mph 16.1 mph N/A   Clear
7:55 PM 39.9 °F 32.5 °F 14.4 °F 35% 30.15 in 10.0 mi North 12.7 mph - N/A   Clear
8:15 PM 40.5 °F 33.6 °F 14.9 °F 35% 30.15 in 10.0 mi NNW 11.5 mph - N/A   Clear
8:35 PM 41.0 °F 34.3 °F 15.6 °F 36% 30.15 in 10.0 mi NNW 11.5 mph - N/A   Clear
8:55 PM 40.1 °F 32.7 °F 15.6 °F 37% 30.15 in 10.0 mi NNW 12.7 mph - N/A   Clear
9:15 PM 38.8 °F - 14.9 °F 38% 30.18 in 10.0 mi Calm Calm - N/A   Clear
9:35 PM 36.5 °F 31.8 °F 14.9 °F 41% 30.19 in 10.0 mi North 5.8 mph 10.4 mph N/A   Clear
9:55 PM 36.5 °F 31.8 °F 14.9 °F 41% 30.20 in 10.0 mi North 5.8 mph - N/A   Clear
10:15 PM 34.3 °F 27.7 °F 14.7 °F 45% 30.21 in 10.0 mi NE 8.1 mph - N/A   Clear
10:35 PM 35.8 °F 30.1 °F 14.5 °F 42% 30.21 in 10.0 mi NNE 6.9 mph - N/A   Clear
10:55 PM 33.1 °F 25.5 °F 14.0 °F 46% 30.22 in 10.0 mi North 9.2 mph - N/A   Clear
11:15 PM 33.4 °F 25.9 °F 14.9 °F 47% 30.23 in 10.0 mi North 9.2 mph - N/A   Clear
11:35 PM 32.4 °F 26.9 °F 14.7 °F 48% 30.23 in 10.0 mi North 5.8 mph - N/A   Clear
11:55 PM 34.5 °F 27.3 °F 15.8 °F 46% 30.23 in 10.0 mi NNW 9.2 mph - N/A   Clear